Regional Weather Roundup
Issued by NWS

Home | Current Version | Previous Version | Text Only | Print | Product List | Glossary On
Versions: 1 2 3 4 5 6 7 8 9 10 11 12 13 14 15 16 17 18 19 20 21 22 23 24 25 26 27 28 29 30 31 32 33 34 35 36 37 38 39 40 41 42 43 44 45 46 47 48 49 50
000
ASUS43 KTOP 020708
RWRKS

WEATHER ROUNDUP FOR KANSAS
NATIONAL WEATHER SERVICE GOODLAND KS
200 AM CDT THU JUL 02 2015

NOTE:  "FAIR" INDICATES FEW OR NO CLOUDS BELOW 12,000 FEET WITH NO
SIGNIFICANT WEATHER AND/OR OBSTRUCTIONS TO VISIBILITY.

KSZ001>006-013>018-027>032-041>047-020800-
NORTHWEST KANSAS

CITY           SKY/WX    TMP DP  RH WIND       PRES   REMARKS
GOODLAND       MOCLDY    67  61  81 NW6       30.01F
HAYS           CLOUDY    75  63  64 NE5       29.89S
HILL CITY      MOCLDY    73  62  68 N3        29.91F
RUSSELL        CLOUDY    73  68  84 NE5       29.87S
$$

KSZ061>065-074>080-084>089-020800-
SOUTHWEST KANSAS

CITY           SKY/WX    TMP DP  RH WIND       PRES   REMARKS
DODGE CITY     MOCLDY    71  57  61 S6        29.92F
ELKHART          N/A     74  57  55 NW8         N/A
GARDEN CITY    CLOUDY    75  58  55 NW7       29.95S
GREAT BEND     CLOUDY    75  64  69 NE3       29.88F
LIBERAL        CLOUDY    79  57  47 E6        29.96S
$$

KSZ066>073-081>083-090>101-020800-
SOUTHEAST KANSAS

CITY           SKY/WX    TMP DP  RH WIND       PRES   REMARKS
CHANUTE        MOCLDY    77  71  82 CALM      29.79F
COFFEYVILLE    CLEAR     82  71  69 SW14G23   29.77F
HUTCHINSON     PTCLDY    76  67  73 NE6       29.85R
MEDICINE LODGE   N/A     70  62  76 N6        29.84F
NEWTON         CLEAR     73  66  78 NE9       29.88R
PARSONS        PTCLDY    80  71  74 SW7       29.79F
WICHITA INTL   MOCLDY    79  67  66 N9        29.81S
WICHITA JABRA  PTCLDY    75  70  84 N12       29.83R
WICHITA MCCONL PTCLDY    77  70  78 N12       29.82R
WINFIELD       PTCLDY    78  68  71 SW5       29.82R
$$

KSZ007>012-019>026-033>040-048>060-102>105-020800-
NORTHEAST KANSAS

CITY           SKY/WX    TMP DP  RH WIND       PRES   REMARKS
CONCORDIA      PTCLDY    73  69  87 NE6       29.87S
EMPORIA        PTCLDY    76  72  87 NE14      29.83S
LAWRENCE       CLOUDY    77  71  82 E9G21     29.83F
MANHATTAN      MOCLDY    77  73  87 NE14      29.85R
MARYSVILLE     PTCLDY    72  70  94 E8        29.88S
OLATHE IND     MOCLDY    72  66  81 E7        29.84F
OLATHE EXE     MOCLDY    71  68  90 E7        29.83F
SALINA         CLEAR     79  71  76 NE3       29.85R
TOPEKA BILLARD CLOUDY    77  72  84 NE12      29.84F
TOPEKA FORBES  MOCLDY    78  72  81 E7        29.84F
$$



USA.gov is the U.S. government's official web portal to all federal, state and local government web resources and services.